Printer-friendly version

IAU Minor Planet Center

Minor Planet Center

MPEC 2005-B24 : 2005 BW1

The following Minor Planet Electronic Circular may be linked-to from your own Web pages, but must not otherwise be redistributed electronically.


Read MPEC 2005-B23 Read MPEC 2005-B25


M.P.E.C. 2005-B24                                Issued 2005 Jan. 18, 18:10 UT

     The Minor Planet Electronic Circulars contain information on unusual
         minor planets and routine data on comets.  They are published
   on behalf of Commission 20 of the International Astronomical Union by the
          Minor Planet Center, Smithsonian Astrophysical Observatory,
                          Cambridge, MA 02138, U.S.A.

                  Supported in part by the Brinson Foundation
             Prepared using the Tamkin Foundation Computer Network

                              MPC@CFA.HARVARD.EDU
          URL http://cfa-www.harvard.edu/iau/mpc.html  ISSN 1523-6714

                                   2005 BW1

Observations:
     K05B01W* C2005 01 16.52826 16 01 18.97 -03 23 26.7          18.8 R EB024703
     K05B01W  C2005 01 16.53575 16 01 22.32 -03 24 11.5          19.1 R EB024703
     K05B01W  C2005 01 16.54321 16 01 25.59 -03 24 56.1          19.3 R EB024703
     K05B01W  C2005 01 16.55068 16 01 28.98 -03 25 41.0          19.4 R EB024703
     K05B01W  C2005 01 16.55795 16 01 32.25 -03 26 24.2                 EB024703
     K05B01W  C2005 01 16.55847 16 01 32.46 -03 26 26.4                 EB024703
     K05B01W  C2005 01 16.55952 16 01 32.94 -03 26 34.5                 EB024703
     K05B01W  C2005 01 17.52691 16 08 59.46 -05 04 47.6          18.9 R EB024703
     K05B01W  C2005 01 17.52779 16 08 59.85 -05 04 53.4          18.9 R EB024703
     K05B01W  C2005 01 17.52866 16 09 00.23 -05 04 58.2          18.8 R EB024703
     K05B01W  C2005 01 17.52953 16 09 00.60 -05 05 03.6          19.3 R EB024703
     K05B01W 9C2005 01 18.37091 16 15 47.56 -06 33 19.5          19.4 R EB024809
     K05B01W 9C2005 01 18.37208 16 15 48.20 -06 33 27.1          19.2 R EB024809
     K05B01W 9C2005 01 18.37280 16 15 48.50 -06 33 31.8          19.2 R EB024809
     K05B01W 9C2005 01 18.37352 16 15 48.91 -06 33 36.7          19.3 R EB024809
     K05B01W 9C2005 01 18.37426 16 15 49.28 -06 33 41.3          19.4 R EB024809
     K05B01W  C2005 01 18.52323 16 17 02.96 -06 49 53.8          18.9 R EB024703
     K05B01W  C2005 01 18.52411 16 17 03.37 -06 49 58.8          18.6 R EB024703
     K05B01W  C2005 01 18.52501 16 17 03.82 -06 50 04.2          19.0 R EB024703
     K05B01W  C2005 01 18.52587 16 17 04.30 -06 50 09.9          19.3 R EB024703
     K05B01W  C2005 01 18.52676 16 17 04.83 -06 50 15.4          18.6 R EB024703
     K05B01W  C2005 01 18.52762 16 17 05.15 -06 50 21.3          19.6 R EB024703
     K05B01W  C2005 01 18.52850 16 17 05.68 -06 50 26.3          19.5 R EB024703
     K05B01W  C2005 01 18.52937 16 17 06.08 -06 50 32.2          19.3 R EB024703
     K05B01W 5C2005 01 18.56840 16 17 25.44 -06 54 43.5          19.7 R EB024673
     K05B01W 5C2005 01 18.57037 16 17 26.31 -06 54 55.9                 EB024673
     K05B01W 5C2005 01 18.57512 16 17 28.86 -06 55 29.1                 EB024673
     K05B01W 5C2005 01 18.57951 16 17 30.98 -06 55 56.9                 EB024673

Observer details:
673 Table Mountain Observatory, Wrightwood.  Observer J. Young.  0.6-m
    reflector + CCD.
703 Catalina Sky Survey.  Observer E. J. Christensen.  Measurers E. C. Beshore,
    C. M. Casey, E. J. Christensen, G. J. Garradd, R. E. Hill, S. M. Larson,
    R. H. McNaught.  0.68-m Schmidt + CCD.
809 European Southern Observatory, La Silla.  Observers A. Boattini,
    H. Boehnhardt.  Measurers A. Boattini, H. Scholl.  2.2-m f/5.9 reflector.

Orbital elements:
2005 BW1
Epoch 2005 Jan. 10.0 TT = JDT 2453380.5                 MPC
M 347.83789              (2000.0)            P               Q
n   0.30302216     Peri.  276.08803     -0.04369122     +0.96031945
a   2.1952625      Node   341.85467     -0.08491181     -0.27829405
e   0.8522226      Incl.   62.19027     -0.99543009     -0.01841121
P   3.25           H   18.0           G   0.15
From 28 observations 2005 Jan. 16-18.

Ephemeris:
2005 BW1                 a,e,i = 2.20, 0.85, 62                  q = 0.3244
Date    TT    R. A. (2000) Decl.     Delta      r     Elong.  Phase     V
2005 01 10    15 19.53   +05 55.5    0.751    0.969    66.3    68.4    19.7
2005 01 11    15 25.11   +04 41.2    0.733    0.952    65.5    70.1    19.7
2005 01 12    15 30.96   +03 23.1    0.715    0.935    64.5    71.8    19.6
2005 01 13    15 37.09   +02 00.8    0.699    0.917    63.5    73.6    19.6
2005 01 14    15 43.53   +00 34.4    0.682    0.900    62.3    75.5    19.6
2005 01 15    15 50.29   -00 56.3    0.667    0.883    61.1    77.4    19.6
2005 01 16    15 57.40   -02 31.3    0.653    0.865    59.8    79.5    19.5
2005 01 17    16 04.88   -04 10.6    0.639    0.847    58.4    81.6    19.5
2005 01 18    16 12.75   -05 54.0    0.627    0.829    56.9    83.8    19.5
2005 01 19    16 21.04   -07 41.3    0.615    0.811    55.4    86.0    19.5
2005 01 20    16 29.77   -09 32.1    0.605    0.793    53.7    88.4    19.5

Timothy B. Spahr             (C) Copyright 2005 MPC           M.P.E.C. 2005-B24

Read MPEC 2005-B23 Read MPEC 2005-B25


Our Web policy. Index to the CBAT/MPC/ICQ pages.


Valid HTML 4.01!